This demonstration page uses our WeatherBlox Daily Observations layout. Learn more.

Left ArrowRight Arrow

Hourly Observations for February 16, 2022

Temp ( °F °C ) Dew Point ( °F °C ) Humidity (%) Winds ( mph kmh ) Pressure ( in mb ) Visibility ( mi km ) Precip ( " mm )
12:53 am 00:53 Clear 52 11.1 28 -2.2 40 40 NNW 12 19 30.07 1018 10 16 0.00 0.00
1:53 am 01:53 Clear 49 9.4 29 -1.7 46 46 NW 6 9 30.07 1018 10 16 0.00 0.00
2:53 am 02:53 Clear 50 10 28 -2.2 43 43 NNW 6 9 30.06 1018 10 16 0.00 0.00
3:53 am 03:53 Clear 46 7.8 29 -1.7 51 51 Calm 30.05 1018 10 16 0.00 0.00
4:53 am 04:53 Clear 45 7.2 28 -2.2 52 52 WNW 5 7 30.05 1018 10 16 0.00 0.00
5:53 am 05:53 Clear 46 7.8 28 -2.2 50 50 NNW 7 11 30.05 1018 10 16 0.00 0.00
6:53 am 06:53 Clear 41 5 29 -1.7 62 62 N 3 6 30.04 1017 10 16 0.00 0.00
7:53 am 07:53 Sunny 50 10 29 -1.7 44 44 NNW 6 9 30.06 1018 10 16 0.00 0.00
8:53 am 08:53 Sunny 55 12.8 30 -1.1 38 38 NNW 8 13 30.08 1019 10 16 0.00 0.00
9:53 am 09:53 Sunny 62 16.7 32 0 32 32 NNE 17 28 30.09 1019 10 16 0.00 0.00
10:53 am 10:53 Sunny 64 17.8 33 0.6 32 32 NNE 17 28 30.09 1019 10 16 0.00 0.00
11:53 am 11:53 Sunny 66 18.9 33 0.6 29 29 NE 16 26 30.09 1019 10 16 0.00 0.00
12:53 pm 12:53 Sunny 68 20 32 0 26 26 N 12 19 30.08 1019 10 16 0.00 0.00
1:53 pm 13:53 Sunny 69 20.6 31 -0.6 24 24 ENE 13 20 30.07 1018 10 16 0.00 0.00
2:53 pm 14:53 Sunny 69 20.6 31 -0.6 24 24 ENE 17 28 30.07 1018 10 16 0.00 0.00
3:53 pm 15:53 Sunny 69 20.6 30 -1.1 23 23 NE 14 22 30.08 1019 10 16 0.00 0.00
4:53 pm 16:53 Sunny 67 19.4 29 -1.7 24 24 ENE 13 20 30.10 1019 10 16 0.00 0.00
5:53 pm 17:53 Clear 62 16.7 29 -1.7 29 29 NNE 7 11 30.14 1021 10 16 0.00 0.00
6:53 pm 18:53 Clear 58 14.4 29 -1.7 33 33 ENE 3 6 30.17 1022 10 16 0.00 0.00
7:53 pm 19:53 Clear 58 14.4 28 -2.2 32 32 NNE 9 15 30.19 1022 10 16 0.00 0.00
8:53 pm 20:53 Clear 53 11.7 31 -0.6 43 43 NNE 12 19 30.21 1023 10 16 0.00 0.00
9:53 pm 21:53 Clear 58 14.4 26 -3.3 29 29 N 8 13 30.23 1024 10 16 0.00 0.00
10:53 pm 22:53 Clear 58 14.4 27 -2.8 31 31 NNW 14 22 30.24 1024 10 16 0.00 0.00
11:53 pm 23:53 Clear 58 14.4 27 -2.8 31 31 NNW 12 19 30.26 1025 10 16 0.00 0.00

Powered by AerisWeather